Flag for Australia Weather past 2 weeks in Mildura, Victoria, Australia

Now
89 °F

Hot.


Feels Like: 85 °F
Forecast: 67 / 93 °F
Wind: 3 mph from North

Location: Mildura Airport

Current Time: Oct 22, 2014 at 9:08:08 PM

Latest Report: Oct 22, 2014 at 8:00 PM


Visibility: N/A

Pressure: 29.91 "Hg

Humidity: 17%

Dew point: 38 °F

Location of MilduraLocation

Historic Weather in Mildura — Graph

°F

Mildura temperature yesterday

Maximum temperature yesterday: 98 °F (at 4:00 PM)
Minimum temperature yesterday: 56 °F (at 7:00 AM)
Average temperature yesterday: 78 °F

Past Weeks' High & Low Weather Summary

 TemperatureHumidityPressure
High98 °F (Oct 22, 3:00 PM)92% (Oct 16, 7:00 AM)30.31 "Hg (Oct 16, 7:00 AM)
Low40 °F (Oct 15, 7:00 AM)3% (Oct 19, 4:00 PM)29.67 "Hg (Oct 12, 5:00 PM)
Average66 °F36%30.10 "Hg
* Reported Oct 7 7:00 PM — Oct 22 7:00 PM, Mildura, Weather by CustomWeather, © 2014

Note: Actual official high and low records may vary slightly from our data, if they occured in-between our weather recording intervals... More about our weather records

Advertising

Mildura weather history for previous 24 hours

 ConditionsComfort  
Time TempWeatherWind HumidityBarometerVisibility
7:00 PM
Oct 22
92 °FHot.5 mph17%29.90 "HgN/A
6:00 PM96 °FScattered clouds.8 mph11%29.90 "HgN/A
5:00 PM97 °FExtremely hot.10 mph10%29.91 "HgN/A
4:00 PM98 °FExtremely hot.13 mph8%29.93 "HgN/A
3:00 PM98 °FPassing clouds.7 mph9%29.95 "Hg25 mi
2:00 PM96 °FExtremely hot.8 mph10%29.98 "HgN/A
1:00 PM94 °FExtremely hot.9 mph12%30.00 "HgN/A
12:00 PM88 °FScattered clouds.9 mph18%30.02 "Hg25 mi
11:00 AM83 °FPleasantly warm.8 mph28%30.04 "HgN/A
10:00 AM77 °FPleasantly warm.7 mph36%30.06 "HgN/A
9:00 AM78 °FPartly sunny.13 mph34%30.03 "Hg25 mi
8:00 AM73 °FMild.8 mph38%30.02 "HgN/A
7:00 AM72 °FMild.7 mph39%30.01 "HgN/A
6:00 AM72 °FOvercast.7 mph36%30.01 "Hg25 mi
5:00 AM74 °FMild.8 mph33%30.00 "HgN/A
4:00 AM75 °FMild.7 mph31%30.01 "HgN/A
3:00 AM78 °FOvercast.9 mph28%30.04 "HgN/A
2:00 AM81 °FPleasantly warm.12 mph25%30.06 "HgN/A
1:00 AM81 °FPleasantly warm.10 mph24%30.07 "HgN/A
12:00 AM82 °FOvercast.9 mph23%30.08 "HgN/A
11:00 PM
Oct 21
84 °FPleasantly warm.12 mph21%30.08 "HgN/A
10:00 PM81 °FPleasantly warm.8 mph20%30.08 "HgN/A
9:00 PM84 °FPassing clouds.9 mph18%30.07 "HgN/A
Weather by CustomWeather, © 2014

See weather overviewHow to use our weather pages